Lumberton, NC

10:36 PM EDT on May 29, 2017 (GMT -0400)
Lumberton Municipal

Weather History for KLBT - January, 2013

Change the Weather History Date:

Wednesday, January 16, 2013

  Actual Average Record
Temperature  
Mean Temperature 64 °F 43 °F  
Max Temperature 75 °F 53 °F 75 °F (2013)
Min Temperature 53 °F 33 °F 20 °F (2009)
Degree Days  
Heating Degree Days 1 22  
Month to date heating degree days 196 351  
Since 1 July heating degree days 1210 1401  
Cooling Degree Days 0 0  
Month to date cooling degree days 0 0  
Year to date cooling degree days 0 0  
Growing Degree Days 13 (Base 50)    
Moisture  
Dew Point 58 °F    
Average Humidity 82    
Maximum Humidity 100    
Minimum Humidity 64    
Precipitation  
Precipitation T in 0.10 in 0.15 in (2005)
Month to date precipitation 0.52 1.37  
Year to date precipitation 0.52 1.37  
Sea Level Pressure  
Sea Level Pressure 29.99 in    
Wind  
Wind Speed 5 mph (SW)    
Max Wind Speed 21 mph    
Max Gust Speed 25 mph    
Visibility 6 miles    
Events Fog    
T = Trace of Precipitation, MM = Missing Value Source: NWS Daily Summary

Daily Weather History Graph

Daily Weather History Graph

Search for Another Location

Airport or City:

Trip Planner

Search our weather history database for the weather conditions in past years. The results will help you decide how hot, cold, wet, or windy it might be!

Date:

Astronomy

Jan. 16, 2013 Rise Set
Actual Time 7:22 AM EST 5:30 PM EST
Civil Twilight 6:55 AM EST 5:57 PM EST
Nautical Twilight 6:24 AM EST 6:28 PM EST
Astronomical Twilight 5:54 AM EST 6:58 PM EST
Moon 10:13 AM EST (1/16) 11:02 PM EST (1/16)
Length of Visible Light 11h 02m
Length of Day
10h 07m
Waxing Crescent, 28% of the Moon is Illuminated
Jan 16
Waxing Crescent
Jan 18
First Quarter
Jan 26
Full
Feb 3
Last Quarter
Feb 10
New

Hourly Weather History & Observations

Time (EST) Temp. Dew Point Humidity Pressure Visibility Wind Dir Wind Speed Gust Speed Precip Events Conditions
1:14 AM 53.6 °F 53.6 °F 100% 30.04 in 0.8 mi Calm Calm - N/A   Overcast
1:54 AM 54.0 °F 54.0 °F 100% 30.04 in 0.2 mi Calm Calm - N/A Fog Fog
2:54 AM 55.9 °F 55.9 °F 100% 30.02 in 0.2 mi Calm Calm - N/A Fog Fog
3:54 AM 55.9 °F 55.9 °F 100% 30.01 in 0.2 mi Calm Calm - N/A Fog Fog
4:54 AM 57.9 °F 57.9 °F 100% 30.00 in 0.5 mi Calm Calm - N/A Fog Fog
5:07 AM 57.2 °F 57.2 °F 100% 30.00 in 1.0 mi Calm Calm - N/A   Overcast
5:11 AM 59.0 °F 57.2 °F 94% 30.00 in 1.2 mi South 3.5 mph - N/A   Overcast
5:17 AM 60.8 °F 60.8 °F 100% 29.99 in 2.0 mi SSW 4.6 mph - N/A   Overcast
5:26 AM 62.6 °F 62.6 °F 100% 29.99 in 5.0 mi South 3.5 mph - N/A   Overcast
5:54 AM 63.0 °F 62.1 °F 97% 29.98 in 7.0 mi South 8.1 mph - N/A   Overcast
6:17 AM 62.6 °F 62.6 °F 100% 29.99 in 7.0 mi SSW 8.1 mph - N/A   Mostly Cloudy
7:05 AM 64.4 °F 62.6 °F 94% 30.00 in 7.0 mi South 5.8 mph - N/A   Mostly Cloudy
7:54 AM 64.0 °F 62.1 °F 93% 30.01 in 5.0 mi South 4.6 mph - N/A   Partly Cloudy
8:54 AM 66.0 °F 64.0 °F 93% 30.02 in 8.0 mi SSW 5.8 mph - N/A   Clear
9:54 AM 69.1 °F 63.0 °F 81% 30.02 in 10.0 mi SW 10.4 mph 16.1 mph N/A   Clear
10:54 AM 71.1 °F 62.1 °F 73% 30.01 in 10.0 mi SSW 12.7 mph 18.4 mph N/A   Overcast
11:54 AM 73.0 °F 61.0 °F 66% 29.98 in 10.0 mi SW 11.5 mph 23.0 mph N/A   Overcast
12:54 PM 73.9 °F 61.0 °F 64% 29.96 in 10.0 mi SW 16.1 mph 20.7 mph N/A   Overcast
1:54 PM 73.9 °F 61.0 °F 64% 29.95 in 10.0 mi West 9.2 mph 21.9 mph N/A   Overcast
2:54 PM 71.1 °F 61.0 °F 70% 29.95 in 10.0 mi NW 9.2 mph - N/A   Overcast
3:54 PM 64.9 °F 62.1 °F 90% 29.97 in 10.0 mi NNW 8.1 mph - 0.00 in   Overcast
4:54 PM 64.9 °F 61.0 °F 87% 29.99 in 10.0 mi North 4.6 mph - N/A   Overcast
5:54 PM 59.0 °F 55.9 °F 90% 29.99 in 10.0 mi NNE 5.8 mph - N/A   Mostly Cloudy
6:54 PM 57.9 °F 55.9 °F 93% 30.00 in 10.0 mi Calm Calm - N/A   Mostly Cloudy
7:54 PM 57.9 °F 55.9 °F 93% 30.00 in 10.0 mi Calm Calm - N/A   Overcast
8:54 PM 57.0 °F 55.0 °F 93% 29.99 in 10.0 mi Calm Calm - N/A   Clear
9:54 PM 55.9 °F 55.0 °F 97% 29.99 in 6.0 mi Calm Calm - N/A   Clear
10:54 PM 54.0 °F 54.0 °F 100% 29.97 in 7.0 mi Calm Calm - N/A   Clear
11:13 PM 53.6 °F 53.6 °F 100% 29.98 in 1.5 mi Calm Calm - N/A   Clear
11:17 PM 53.6 °F 53.6 °F 100% 29.97 in 0.8 mi Calm Calm - N/A   Clear
11:24 PM 53.6 °F 53.6 °F 100% 29.97 in 1.2 mi Calm Calm - N/A   Clear
11:28 PM 53.6 °F 53.6 °F 100% 29.97 in 3.0 mi Calm Calm - N/A   Clear
11:47 PM 53.6 °F 53.6 °F 100% 29.98 in 6.0 mi Calm Calm - N/A   Partly Cloudy
11:54 PM 54.0 °F 54.0 °F 100% 29.97 in 6.0 mi Calm Calm - N/A   Scattered Clouds